星链-31988 (STARLINK-31988)

导读 | 豆包AI

STARLINK-31988是美国SpaceX星链互联网星座的卫星,于2024年8月20日发射入轨,属于星链低轨卫星互联网组网计划的组成部分。星链旨在为全球提供高速低延迟宽带网络服务,该卫星会与其他星链卫星协同,补网增强星座服务能力,服务全球偏远区域、移动网络用户等场景。

Basic Information
目录编号:
60601
目录名称:
STARLINK-31988
国际标识:
2024-150U
轨道中心:
EARTH
卫星名称:
星链-31988 (STARLINK-31988)
卫星全名:
星链-31988 (STARLINK-31988)
卫星状态:
在轨 (已飞行619 天)
发射日期:
2024-08-20 UTC
国别 :
美国 (US)
星等 :
--
Orbit Information
数据来源 国际轨道数据
星历时间: 2026-05-01T06:00:02+0800
6小时前
查看轨道信息
半长轴: 6843.293km
偏心率: 0.0001226
轨道倾角: 53.160°
近地点辐角 86.703°
升交点赤经 64.479°
平近点角 32.004°
近地点: 464.317km
远地点: 465.995km
周期: 93.898分钟
每日圈数: 15.335752
Detailed Information
卫星平台:
Starlink v2.0 mini
运营商:
太空探索技术公司
运营商所在国:
美国
制造商(研发单位):
太空探索技术公司
制造商所在国:
美国
使用方式:
暂无
Satellite Introduction
星链(Starlink)计划是由太空探索技术公司(SpaceX)提出的一个巨型低轨卫星互联网星座项目,计划在2019年至2024年间在太空搭建由约1.2万颗卫星组成的“星链”网络,其中1584颗将部署在地球上空550千米处的近地轨道,并从2020年开始工作。该卫星仍在工作。
2D Orbit Map
3D Orbit Map
Orbit Altitude Analysis Chart
Orbit Inclination Analysis Chart
Orbit Comprehensive Analysis Chart
View Comprehensive Chart